Location: Allie Creek
(37.5926°N, 89.8526°W)
Time: 18:02:57
(UTC+00:00)

USA 81 - Pass Details

Date: 27 April 2024
Orbit: 784 x 786 km, 85.0° (Epoch: 28 May)

Event Time Altitude Azimuth Distance (km) Brightness Sun altitude
Exits shadow 04:09:39 - 250° (WSW) 2,414 6.7 -32.6°
Reaches altitude 10° 04:09:59 10° 253° (WSW) 2,343 6.6 -32.6°
Maximum altitude 04:12:51 15° 286° (WNW) 2,036 6.6 -32.9°
Drops below altitude 10° 04:15:44 10° 320° (NW) 2,351 7.3 -33.2°
Sets 04:19:14 0° 344° (NNW) 3,284 8.3 -33.5°
